DW6283 Weather Reports


time (UTC)temp
C
wind
direction
speed
KPH
gust
KPH
rain 1hr
cm
rain 24hr
cm
rain mn
cm
humidity
%
barometer
mb
20260510111511 15 117 0.0 0.0 0.00 0.00 0.00 82 1010.6
20260510110022 16 117 0.0 0.0 0.00 0.00 0.00 81 1010.6
20260510104557 16 117 0.0 0.0 0.00 0.00 0.00 81 1010.5
20260510103050 16 117 0.0 1.6 0.00 0.00 0.00 80 1010.5
20260510101536 16 117 0.0 0.0 0.00 0.00 0.00 79 1010.4
20260510100030 16 117 0.0 0.0 0.00 0.00 0.00 78 1010.4
20260510094512 17 117 0.0 0.0 0.00 0.00 0.00 77 1010.4
20260510093010 17 117 0.0 0.0 0.00 0.00 0.00 76 1010.4
20260510091553 17 117 0.0 0.0 0.00 0.00 0.00 75 1010.4
20260510090052 17 117 0.0 0.0 0.00 0.00 0.00 74 1010.4
20260510084536 18 117 0.0 1.6 0.00 0.00 0.00 73 1010.5
20260510083041 18 117 0.0 1.6 0.00 0.00 0.00 73 1010.4
20260510081516 18 117 0.0 1.6 0.00 0.00 0.00 72 1010.6
20260510080016 18 117 0.0 4.8 0.00 0.00 0.00 70 1010.6
20260510074600 19 117 0.0 3.2 0.00 0.00 0.00 69 1010.5
20260510073107 19 117 0.0 4.8 0.00 0.00 0.00 68 1010.6
20260510071541 20 117 0.0 3.2 0.00 0.00 0.00 66 1010.7
20260510070039 20 117 0.0 1.6 0.00 0.00 0.00 65 1010.6
20260510064530 20 117 0.0 3.2 0.00 0.00 0.00 64 1010.5
20260510063022 21 117 0.0 3.2 0.00 0.00 0.00 62 1010.4
20260510061509 21 118 0.0 4.8 0.00 0.00 0.00 60 1010.3
20260510060007 22 119 0.0 3.2 0.00 0.00 0.00 58 1010.3
20260510054545 22 119 0.0 1.6 0.00 0.00 0.00 56 1010.3
20260510053045 22 119 0.0 1.6 0.00 0.00 0.00 54 1010.3
20260510051534 23 119 0.0 3.2 0.00 0.00 0.00 52 1010.3
20260510050033 23 119 0.0 3.2 0.00 0.00 0.00 51 1010.2
20260510044532 23 119 0.0 6.4 0.00 0.00 0.00 50 1010.2
20260510043032 24 119 0.0 1.6 0.00 0.00 0.00 49 1010.1
20260510041531 25 119 0.0 1.6 0.00 0.00 0.00 48 1010.0
20260510040030 25 119 0.0 4.8 0.00 0.00 0.00 46 1009.8
20260510034529 25 120 0.0 4.8 0.00 0.00 0.00 45 1009.6
20260510033029 26 86 0.0 4.8 0.00 0.00 0.00 43 1009.4
20260510031528 27 86 0.0 4.8 0.00 0.00 0.00 41 1009.3
20260510030021 27 86 0.0 8.0 0.00 0.00 0.00 39 1009.2
20260510024514 28 86 0.0 8.0 0.00 0.00 0.00 37 1009.1
20260510023053 29 92 0.0 4.8 0.00 0.00 0.00 36 1009.0
20260510021552 30 59 0.0 8.0 0.00 0.00 0.00 36 1008.9
20260510020033 30 92 0.0 4.8 0.00 0.00 0.00 34 1008.9
20260510014532 31 95 0.0 6.4 0.00 0.00 0.00 31 1008.9
20260510013014 31 106 0.0 4.8 0.00 0.00 0.00 28 1008.9
20260510011516 32 56 0.0 4.8 0.00 0.00 0.00 28 1008.9
20260510010055 32 85 0.0 3.2 0.00 0.00 0.00 28 1008.9
20260510004554 32 123 0.0 6.4 0.00 0.00 0.00 28 1009.0
20260510003037 33 51 0.0 4.8 0.00 0.00 0.00 27 1009.0
20260510001535 33 96 0.0 3.2 0.00 0.00 0.00 26 1009.1
20260510000016 33 105 0.0 4.8 0.00 0.00 0.00 25 1009.2
20260509234529 33 32 0.0 6.4 0.00 0.00 0.00 26 1009.4
20260509233057 33 46 0.0 8.0 0.00 0.00 0.00 24 1009.4
20260509231601 34 142 0.0 6.4 0.00 0.00 0.00 25 1009.6
20260509230041 34 102 0.0 3.2 0.00 0.00 0.00 26 1009.7
20260509224545 34 59 0.0 6.4 0.00 0.00 0.00 29 1009.9
20260509223015 34 56 0.0 8.0 0.00 0.00 0.00 30 1010.2
20260509221512 34 127 0.0 9.7 0.00 0.00 0.00 28 1010.4
20260509220053 34 65 0.0 6.4 0.00 0.00 0.00 28 1010.6
20260509214552 34 61 0.0 3.2 0.00 0.00 0.00 28 1010.8
20260509213033 34 71 0.0 4.8 0.00 0.00 0.00 27 1011.0
20260509211531 33 77 0.0 3.2 0.00 0.00 0.00 31 1011.2
20260509210012 34 76 0.0 3.2 0.00 0.00 0.00 29 1011.4
20260509204509 33 78 0.0 4.8 0.00 0.00 0.00 31 1011.5
20260509203056 33 52 0.0 4.8 0.00 0.00 0.00 29 1011.6
20260509201546 33 53 0.0 4.8 0.00 0.00 0.00 33 1011.7
20260509200027 33 61 0.0 3.2 0.00 0.00 0.00 32 1011.8
20260509194527 32 73 0.0 1.6 0.00 0.00 0.00 34 1012.0
20260509193007 32 121 0.0 3.2 0.00 0.00 0.00 35 1012.1
20260509191502 32 59 0.0 1.6 0.00 0.00 0.00 37 1012.3
20260509190041 31 61 0.0 1.6 0.00 0.00 0.00 40 1012.5
20260509184544 30 89 0.0 1.6 0.00 0.00 0.00 40 1012.7
20260509183015 28 89 0.0 3.2 0.00 0.00 0.00 43 1012.9
20260509181514 28 89 0.0 3.2 0.00 0.00 0.00 41 1013.0
20260509180113 29 89 0.0 1.6 0.00 0.00 0.00 43 1013.0
20260509174554 28 89 0.0 1.6 0.00 0.00 0.00 44 1013.1
20260509173040 28 89 0.0 3.2 0.00 0.00 0.00 44 1013.2
20260509171527 27 89 0.0 0.0 0.00 0.00 0.00 47 1013.2
20260509170007 26 89 0.0 1.6 0.00 0.00 0.00 49 1013.4
20260509164503 26 89 0.0 4.8 0.00 0.00 0.00 50 1013.3
20260509163044 25 89 0.0 1.6 0.00 0.00 0.00 50 1013.4
20260509161544 24 89 0.0 0.0 0.00 0.00 0.00 54 1013.4
20260509160017 23 89 0.0 1.6 0.00 0.00 0.00 56 1013.4
20260509154516 22 89 0.0 0.0 0.00 0.00 0.00 59 1013.5
20260509153106 21 89 0.0 0.0 0.00 0.00 0.00 64 1013.5
20260509151557 20 89 0.0 0.0 0.00 0.00 0.00 69 1013.3
20260509150025 18 89 0.0 0.0 0.00 0.00 0.00 75 1013.4
20260509144521 16 89 0.0 0.0 0.00 0.00 0.00 82 1013.4
20260509143014 15 89 0.0 1.6 0.00 0.00 0.00 89 1013.3
20260509141516 13 89 0.0 0.0 0.00 0.00 0.00 94 1013.3
20260509140007 12 89 0.0 0.0 0.00 0.00 0.00 94 1013.0
20260509134522 12 89 0.0 0.0 0.00 0.00 0.00 93 1012.8
20260509133006 12 89 0.0 0.0 0.00 0.00 0.00 92 1012.7
20260509131506 12 89 0.0 0.0 0.00 0.00 0.00 92 1012.7
20260509130005 12 89 0.0 0.0 0.00 0.00 0.00 92 1012.4
20260509124503 12 89 0.0 1.6 0.00 0.00 0.00 91 1012.4
20260509123046 12 89 0.0 0.0 0.00 0.00 0.00 91 1012.3
20260509121549 12 89 0.0 0.0 0.00 0.00 0.00 90 1012.3
20260509120026 12 89 0.0 0.0 0.00 0.00 0.00 90 1012.2
20260509114528 12 89 0.0 0.0 0.00 0.00 0.00 89 1012.4
20260509113005 12 89 0.0 0.0 0.00 0.00 0.00 89 1012.4